Home > Weather > Okayama > Past weeks

Flag for Japan Past Weather in Okayama, Japan — Yesterday and Last 2 Weeks

Now
64 °F

Broken clouds.


Feels Like: 64 °F
Forecast: 66 / 76 °F
Wind: 3 mph from Northwest

Location: Okayama Airport

Current Time: Jun 28, 2016 at 7:24:31 AM

Latest Report: Jun 28, 2016 at 7:00 AM


Visibility: N/A

Pressure: 29.83 "Hg

Humidity: 94%

Dew Point: 63 °F

Location of OkayamaLocation

Past Weather in Okayama — Graph

°F

Okayama Temperature Yesterday

Maximum temperature yesterday: 77 °F (at 11:00 AM)
Minimum temperature yesterday: 64 °F (at 9:00 PM)
Average temperature yesterday: 71 °F

High & Low Weather Summary for the Past Weeks

 TemperatureHumidityPressure
High84 °F (Jun 18, 2:00 PM)100% (Jun 13, 8:00 AM)30.01 "Hg (Jun 13, 8:00 AM)
Low64 °F (Jun 24, 11:00 AM)37% (Jun 18, 4:00 PM)29.50 "Hg (Jun 16, 5:00 PM)
Average73 °F80%29.74 "Hg
* Reported Jun 12 9:00 PM — Jun 27 9:00 PM, Okayama, Weather by CustomWeather, © 2016

Note: Actual official high and low records may vary slightly from our data, if they occured in-between our weather recording intervals... More about our weather records

Advertising

Okayama Weather History for the Previous 24 Hours

Scroll right to see more
 ConditionsComfort  
Time TempWeatherWind HumidityBarometerVisibility
9:00 PM
Mon, Jun 27
64 °FLots of rain. Fog.6 mph94%29.89 "Hg1 mi
8:00 PM66 °FRain showers. Fog.2 mph88%29.89 "Hg2 mi
7:46 PM66 °FRain showers. Fog.2 mph83%29.89 "Hg3 mi
7:00 PM68 °FSprinkles. Fog.3 mph88%29.86 "Hg3 mi
6:00 PM68 °FSprinkles. Fog.5 mph88%29.89 "Hg3 mi
5:00 PM72 °FSprinkles. Broken clouds.6 mph73%29.86 "HgN/A
4:00 PM75 °FPartly sunny.7 mph61%29.86 "HgN/A
3:00 PM75 °FPartly sunny.6 mph65%29.89 "HgN/A
2:00 PM77 °FPartly sunny.7 mph57%29.92 "HgN/A
1:00 PM77 °FPartly sunny.6 mph61%29.92 "HgN/A
12:00 PM77 °FBroken clouds.5 mph65%29.92 "HgN/A
11:00 AM77 °FBroken clouds.3 mph65%29.95 "HgN/A
10:00 AM72 °FPartly sunny.5 mph78%29.95 "Hg6 mi
9:00 AM72 °FScattered clouds.6 mph83%29.95 "Hg5 mi
8:00 AM70 °FFog.5 mph88%29.95 "Hg3 mi
7:45 AM70 °FFog.5 mph83%29.95 "Hg3 mi
7:00 AM66 °FFog.5 mph94%29.92 "Hg2 mi
Weather by CustomWeather, © 2016

See weather overviewHow to use our weather pages